Location: Csohesd
(46.2500°N, 22.6167°E)
Time: 04:35:18
(UTC+00:00)

Okean O Rocket - Pass Details

Date: 21 October 2021
Orbit: 623 x 643 km, 98.2° (Epoch: 04 December)

Event Time Altitude Azimuth Distance (km) Brightness Sun altitude
Rises 16:29:07 0° 160° (SSE) 2,891 4.8 -10.5°
Reaches altitude 10° 16:31:18 10° 159° (SSE) 1,990 4.0 -10.8°
Maximum altitude 16:35:37 75° 75° (ENE) 652 1.5 -11.6°
Drops below altitude 10° 16:39:59 10° 350° (N) 2,013 4.3 -12.3°
Sets 16:42:11 0° 348° (NNW) 2,927 5.1 -12.7°
